PEGASUS DEB, 24529

Orbit data source: Space-Track

PEGASUS DEB, 24529 is space debris in LEO originally from a launch on Thu, 19 May 1994 UTC launched from the Air Force Western Test Range (AFWTR). Debris objects in space refer to the collection of defunct objects orbiting the Earth. Examples of debris include non-operational satellites, rocket bodies, and fragments generated from explosions, collisions, or faulty payload assembly.

Loading next visibility...
Identifier
24529, 1994-029WD
Orbit
LEO
Country
Flag of USUS
Related business
Manufacturer
Unknown
Mission
Spacecraft
Bus & Motor
Unknown
Mass
Unknown
Launch date (UTC)
1994-05-19 (32 years ago)
Launch vehicle
Unknown
Launch site
Air Force Western Test Range (AFWTR)
Object type
Payload
Rocket body
Debris
Shape & HBR
Unknown shape, 0.1 m
Radar Cross Section
Medium (>0.1 m² and <1 m²)

Expand to show TLE details & history
Last TLE update: 10 hours ago

TLE from 10 hours ago
0 PEGASUS DEB
1 24529U 94029WD  26237.92824647  .00001495  00000-0  13738-3 0  9992
2 24529  81.9720  49.6837 0106854  58.0602  93.2746 14.89768510262665
Epoch: 2026-08-25T22:16Z
TLE epoch observation values (Epoch: 2026-08-25T22:16:40.495Z)
Latitude
27.1931°
Longitude
-82.80641°
Altitude
607.127 km
Speed
7.556 km/s
True Right ascension
15h 02m 12s
True Declination
27° 03' 02"
Sunlit
Object was in daylight at epoch
Visualization orbit readout
Latitude
Unknown
Longitude
Unknown
Altitude
Unknown
Speed
Unknown
Apparent Right ascension
Unknown
Apparent Declination
Unknown
Sunlit
N/A
Visualization observer readout
Local Sidereal Time
23:56:04
Azimuth
Unknown
Elevation
Unknown
Doppler factor
Unknown
Orbital elements
Apogee altitude
670.21 km
Perigee altitude
521.173 km
Semi-major axis
6,973.828 km
Eccentricity
0.01069
Inclination
81.972°
RAAN
49.6837°
Arg. of periapsis
58.0602°
True anomaly
94.49603°
Mean anomaly
93.2746°
Eccentric anomaly
93.88542°
Mean motion
3.7268 °/min
Orbital period
96.6 mins
BSTAR
0.00013738
Loading maneuver chart data...
Computing Atmospheric mass density...

Documentation

Showing up to 5 results
|